ARIANE 5 R/B, 44335

Orbit data source: Space-Track

ARIANE 5 R/B, 44335 is space debris in HEO originally from a launch on Thu, 20 Jun 2019 UTC launched from the French Guiana (FRGUI). Debris objects in space refer to the collection of defunct objects orbiting the Earth. Examples of debris include non-operational satellites, rocket bodies, and fragments generated from explosions, collisions, or faulty payload assembly.

Loading next visibility...
Identifier
44335, 2019-034C
Orbit
HEO
Country
Flag of FRFR
Related business
Manufacturer
ArianeGroup
Mission
Spacecraft
Bus & Motor
ESC-A, Unknown motor
Mass
~5,000 kg wet, ~5,000 kg dry
Launch date (UTC)
2019-06-20 (7 years ago)
Launch vehicle
Unknown
Launch site
French Guiana (FRGUI)
Object type
Payload
Rocket body
Debris
Shape & HBR
Cyl + 1 Nozzle, 3.5 m
Radar Cross Section
41.627 m², Large (>1 m²)

Expand to show TLE details & history
Last TLE update: 3 days ago

TLE from 3 days ago
0 ARIANE 5 R/B
1 44335U 19034C   26170.57406286  .00016472  00000-0  12675-2 0  9993
2 44335   5.7956 358.6391 7050386 283.4250  12.2910  2.60448962 61914
Epoch: 2026-06-19T13:46Z
TLE epoch observation values (Epoch: 2026-06-19T13:46:39.031Z)
Latitude
-0.00028°
Longitude
-115.86195°
Altitude
3,242.924 km
Speed
8.061 km/s
True Right ascension
23h 54m 24s
True Declination
0° 00' 01"
Sunlit
Object was in daylight at epoch
Visualization orbit readout
Latitude
Unknown
Longitude
Unknown
Altitude
Unknown
Speed
Unknown
Apparent Right ascension
Unknown
Apparent Declination
Unknown
Sunlit
N/A
Visualization observer readout
Local Sidereal Time
21:26:28
Azimuth
Unknown
Elevation
Unknown
Doppler factor
Unknown
Orbital elements
Apogee altitude
31,678.227 km
Perigee altitude
205.385 km
Semi-major axis
22,319.943 km
Eccentricity
0.70504
Inclination
5.7956°
RAAN
358.6391°
Arg. of periapsis
283.425°
True anomaly
76.12806°
Mean anomaly
12.291°
Eccentric anomaly
36.08145°
Mean motion
0.65088 °/min
Orbital period
553.09 mins
BSTAR
0.0012675
Loading maneuver chart data...
Computing Atmospheric mass density...
Loading historical data...
Loading historical data...
Loading historical data...
Loading historical data...
Loading historical data...
Loading historical data...
Loading historical data...
Other satellites on launch #34 in the year 2019 (2019-06-20 UTC)

Documentation

Showing up to 5 results
|